Location: Peterborough
(44.3091°N, 78.3197°W)
Time: 19:56:09
(UTC-04:00)

A-11 Canister half - Pass Details

Date: 30 March 2023
Orbit: 1526 x 1682 km, 47.3° (Epoch: 06 June)

Event Time Altitude Azimuth Distance (km) Brightness Sun altitude
Rises 20:53:39 0° 290° (WNW) 4,894 13.7 -14.0°
Reaches altitude 10° 20:56:50 10° 290° (WNW) 3,888 12.6 -14.5°
Maximum altitude 21:06:46 82° 205° (SSW) 1,622 9.1 -16.2°
Enters shadow 21:13:29 23° 121° (ESE) 2,880 9.8 -17.3°
